TimePDT,TemperatureF,Dew PointF,Humidity,Sea Level PressureIn,VisibilityMPH,Wind Direction,Wind SpeedMPH,Gust SpeedMPH,PrecipitationIn,Events,Conditions,WindDirDegrees,DateUTC
12:53 AM,66.0,57.9,75,30.02,10.0,NW,5.8,-,0.00,Thunderstorm,Overcast,320,2013-09-05 07:53:00
1:15 AM,64.4,57.2,77,30.01,10.0,NNW,4.6,-,0.01,Rain,Light Rain,340,2013-09-05 08:15:00
1:53 AM,64.0,59.0,84,30.00,10.0,North,3.5,-,0.01,,Mostly Cloudy,350,2013-09-05 08:53:00
2:53 AM,63.0,59.0,87,30.01,10.0,Calm,Calm,-,N/A,,Mostly Cloudy,0,2013-09-05 09:53:00
3:53 AM,63.0,59.0,87,29.99,10.0,Calm,Calm,-,N/A,,Mostly Cloudy,0,2013-09-05 10:53:00
4:53 AM,64.0,59.0,84,29.99,10.0,West,5.8,-,N/A,,Mostly Cloudy,270,2013-09-05 11:53:00
5:04 AM,62.6,60.8,94,29.99,10.0,WNW,4.6,-,N/A,,Mostly Cloudy,290,2013-09-05 12:04:00
5:53 AM,64.0,59.0,84,29.99,10.0,Calm,Calm,-,N/A,,Overcast,0,2013-09-05 12:53:00
6:03 AM,62.6,59.0,88,29.98,10.0,Calm,Calm,-,N/A,,Overcast,0,2013-09-05 13:03:00
6:53 AM,63.0,57.9,84,29.99,10.0,Calm,Calm,-,N/A,,Overcast,0,2013-09-05 13:53:00
7:53 AM,64.9,59.0,81,30.00,10.0,Calm,Calm,-,N/A,,Overcast,0,2013-09-05 14:53:00
8:53 AM,64.9,57.9,78,30.00,10.0,Calm,Calm,-,N/A,,Overcast,0,2013-09-05 15:53:00
9:53 AM,64.9,57.9,78,30.00,10.0,NNW,5.8,-,N/A,,Overcast,330,2013-09-05 16:53:00
10:53 AM,66.0,59.0,78,30.00,10.0,Calm,Calm,-,N/A,,Overcast,0,2013-09-05 17:53:00
11:53 AM,66.9,59.0,76,29.99,10.0,NW,5.8,-,N/A,,Overcast,310,2013-09-05 18:53:00
12:53 PM,68.0,59.0,73,29.99,10.0,NNW,4.6,-,N/A,,Overcast,340,2013-09-05 19:53:00
1:28 PM,68.0,59.0,73,29.98,10.0,North,3.5,-,N/A,,Overcast,360,2013-09-05 20:28:00
1:53 PM,69.1,59.0,70,29.99,10.0,North,5.8,-,N/A,,Overcast,350,2013-09-05 20:53:00
2:38 PM,68.0,59.0,73,29.98,10.0,NNW,6.9,-,N/A,,Overcast,340,2013-09-05 21:38:00
2:53 PM,68.0,59.0,73,29.98,10.0,NNW,3.5,-,N/A,,Overcast,330,2013-09-05 21:53:00
3:53 PM,69.1,59.0,70,29.96,10.0,Variable,4.6,-,N/A,,Overcast,0,2013-09-05 22:53:00
4:32 PM,69.8,59.0,68,29.95,10.0,WNW,5.8,-,N/A,,Overcast,300,2013-09-05 23:32:00
4:53 PM,68.0,60.1,76,29.96,10.0,WNW,8.1,-,N/A,,Overcast,290,2013-09-05 23:53:00
5:04 PM,68.0,60.8,78,29.97,10.0,WNW,4.6,-,N/A,,Overcast,300,2013-09-06 00:04:00
5:49 PM,66.2,60.8,83,29.98,9.0,SSE,9.2,17.3,0.00,Rain,Light Rain,160,2013-09-06 00:49:00
5:53 PM,66.0,61.0,84,29.99,7.0,South,17.3,25.3,0.00,Rain,Light Rain,170,2013-09-06 00:53:00
6:01 PM,62.6,60.8,94,29.99,1.8,SSE,10.4,25.3,0.04,Rain,Rain,160,2013-09-06 01:01:00
6:10 PM,62.6,60.8,94,29.99,1.2,South,8.1,18.4,0.08,Rain,Light Rain,170,2013-09-06 01:10:00
6:15 PM,62.6,60.8,94,29.99,2.0,Variable,5.8,-,0.09,Rain,Light Rain,0,2013-09-06 01:15:00
6:19 PM,62.6,60.8,94,29.99,3.0,Variable,4.6,-,0.09,Rain,Light Rain,0,2013-09-06 01:19:00
6:53 PM,63.0,60.1,90,29.98,10.0,ESE,6.9,-,0.11,Rain,Light Rain,120,2013-09-06 01:53:00
7:12 PM,62.6,59.0,88,29.98,10.0,SE,10.4,17.3,0.00,Rain,Light Rain,130,2013-09-06 02:12:00
7:51 PM,62.6,59.0,88,29.99,10.0,ESE,9.2,-,0.00,,Overcast,120,2013-09-06 02:51:00
7:53 PM,62.1,59.0,90,30.00,10.0,SE,6.9,-,0.00,,Overcast,140,2013-09-06 02:53:00
8:16 PM,62.6,59.0,88,30.00,4.0,SE,5.8,-,0.01,Rain,Light Rain,130,2013-09-06 03:16:00
8:53 PM,62.1,59.0,90,30.00,7.0,SE,4.6,-,0.03,,Overcast,140,2013-09-06 03:53:00
9:24 PM,62.6,60.8,94,30.01,2.5,SE,4.6,-,0.06,Rain,Rain,130,2013-09-06 04:24:00
9:35 PM,60.8,60.8,100,30.02,4.0,SE,5.8,-,0.06,Rain,Light Rain,130,2013-09-06 04:35:00
9:53 PM,60.1,57.9,93,30.03,5.0,SE,5.8,-,0.07,Rain,Light Rain,130,2013-09-06 04:53:00
10:53 PM,59.0,57.0,93,30.03,6.0,Variable,4.6,-,0.05,Rain,Light Rain,0,2013-09-06 05:53:00
11:53 PM,60.1,57.0,90,30.03,10.0,SE,6.9,-,0.02,Rain,Light Rain,130,2013-09-06 06:53:00